Location: Unspecified
(64.9000°N, 0.0000°E)
Time: 03:44:05
(UTC+00:00)

Transit 2A Rocket - Pass Details

Date: 24 June 2019
Orbit: 593 x 910 km, 66.7° (Epoch: 12 October)

Event Time Altitude Azimuth Distance (km) Brightness Sun altitude
Rises 19:23:23 0° 306° (NW) 3,346 10.3 13.0°
Reaches altitude 10° 19:27:38 10° 275° (W) 2,324 9.0 12.6°
Maximum altitude 19:29:21 12° 256° (WSW) 2,178 8.2 12.5°
Drops below altitude 10° 19:31:02 10° 237° (WSW) 2,249 7.9 12.3°
Sets 19:34:57 0° 205° (SSW) 3,079 8.1 11.9°
